Abilene, TX

8:53 AM CDT on April 29, 2017 (GMT -0500)
Abilene Regional

Weather History for KABI - June, 2012

Change the Weather History Date:

Friday, June 15, 2012

  Actual Average Record
Temperature  
Mean Temperature 83 °F 80 °F  
Max Temperature 95 °F 91 °F 108 °F (1924)
Min Temperature 71 °F 69 °F 54 °F (1903)
Degree Days  
Heating Degree Days 0 0  
Month to date heating degree days 0 0  
Since 1 June heating degree days 0 0  
Since 1 July heating degree days 2089 2558  
Cooling Degree Days 18 15  
Month to date cooling degree days 240 199  
Year to date cooling degree days 905 596  
Since 1 June cooling degree days 240 199  
Growing Degree Days 33 (Base 50)    
Moisture  
Dew Point 64 °F    
Average Humidity 57    
Maximum Humidity 79    
Minimum Humidity 34    
Precipitation  
Precipitation 0.00 in 0.12 in 1.97 in (2010)
Month to date precipitation 1.65 2.05  
Year to date precipitation 10.51 10.99  
Sea Level Pressure  
Sea Level Pressure 29.85 in    
Wind  
Wind Speed 14 mph (SE)    
Max Wind Speed 29 mph    
Max Gust Speed 33 mph    
Visibility 10 miles    
Events      
T = Trace of Precipitation, MM = Missing Value Source: NWS Daily Summary

Daily Weather History Graph

Daily Weather History Graph

Search for Another Location

Airport or City:

Trip Planner

Search our weather history database for the weather conditions in past years. The results will help you decide how hot, cold, wet, or windy it might be!

Date:

Astronomy

Jun. 15, 2012 Rise Set
Actual Time 6:31 AM CDT 8:47 PM CDT
Civil Twilight 6:02 AM CDT 9:15 PM CDT
Nautical Twilight 5:27 AM CDT 9:50 PM CDT
Astronomical Twilight 4:50 AM CDT 10:28 PM CDT
Moon 3:38 AM CDT (6/15) 5:34 PM CDT (6/15)
Length of Visible Light 15h 13m
Length of Day
14h 16m
Waning Crescent, 13% of the Moon is Illuminated
Jun 15
Waning Crescent
Jun 19
New
Jun 26
First Quarter
Jul 3
Full
Jul 10
Last Quarter

Hourly Weather History & Observations

Time (CDT) Temp. Heat Index Dew Point Humidity Pressure Visibility Wind Dir Wind Speed Gust Speed Precip Events Conditions
12:52 AM 82.9 °F 84.6 °F 64.9 °F 54% 29.84 in 10.0 mi WSW 3.5 mph - N/A   Clear
1:52 AM 75.0 °F - 62.1 °F 64% 29.90 in 10.0 mi North 15.0 mph 27.6 mph N/A   Overcast
2:52 AM 73.0 °F - 62.1 °F 68% 29.87 in 10.0 mi NNE 6.9 mph - N/A   Clear
3:52 AM 72.0 °F - 61.0 °F 68% 29.85 in 10.0 mi SE 9.2 mph - N/A   Clear
4:52 AM 71.1 °F - 61.0 °F 70% 29.84 in 10.0 mi ESE 8.1 mph - N/A   Clear
5:52 AM 71.1 °F - 62.1 °F 73% 29.86 in 10.0 mi ESE 11.5 mph - N/A   Partly Cloudy
6:52 AM 72.0 °F - 62.1 °F 71% 29.86 in 10.0 mi SE 13.8 mph - N/A   Partly Cloudy
7:52 AM 73.0 °F - 64.9 °F 76% 29.88 in 10.0 mi SE 15.0 mph - N/A   Clear
8:52 AM 75.0 °F - 68.0 °F 79% 29.88 in 10.0 mi SE 19.6 mph 26.5 mph N/A   Clear
9:52 AM 80.1 °F 82.9 °F 69.1 °F 69% 29.86 in 10.0 mi SSE 23.0 mph 27.6 mph N/A   Clear
10:52 AM 82.9 °F 87.0 °F 70.0 °F 65% 29.88 in 10.0 mi SE 15.0 mph - N/A   Clear
11:52 AM 86.0 °F 90.1 °F 69.1 °F 57% 29.86 in 10.0 mi SSE 19.6 mph 24.2 mph N/A   Clear
12:52 PM 89.1 °F 93.7 °F 69.1 °F 52% 29.85 in 10.0 mi South 15.0 mph 24.2 mph N/A   Clear
1:52 PM 91.0 °F 95.2 °F 68.0 °F 47% 29.85 in 10.0 mi SSE 12.7 mph 23.0 mph N/A   Clear
2:52 PM 93.0 °F 95.9 °F 66.0 °F 41% 29.83 in 10.0 mi South 17.3 mph 24.2 mph N/A   Clear
3:52 PM 93.9 °F 95.6 °F 64.0 °F 37% 29.83 in 10.0 mi SE 19.6 mph 24.2 mph N/A   Clear
4:52 PM 93.0 °F 95.0 °F 64.9 °F 39% 29.81 in 10.0 mi SSE 18.4 mph 25.3 mph N/A   Clear
5:52 PM 93.9 °F 95.6 °F 64.0 °F 37% 29.80 in 10.0 mi South 17.3 mph 25.3 mph N/A   Clear
6:52 PM 91.9 °F 92.5 °F 62.1 °F 37% 29.79 in 10.0 mi SE 18.4 mph - N/A   Clear
7:52 PM 91.0 °F 90.2 °F 59.0 °F 34% 29.80 in 10.0 mi SSE 15.0 mph 23.0 mph N/A   Clear
8:52 PM 87.1 °F 87.0 °F 61.0 °F 41% 29.82 in 10.0 mi SE 9.2 mph - N/A   Clear
9:52 PM 82.9 °F 84.4 °F 64.0 °F 53% 29.83 in 10.0 mi SE 9.2 mph - N/A   Clear
10:52 PM 81.0 °F 82.5 °F 64.0 °F 56% 29.86 in 10.0 mi SE 10.4 mph - N/A   Clear
11:52 PM 81.0 °F 82.2 °F 63.0 °F 54% 29.88 in 10.0 mi SSE 9.2 mph - N/A   Clear